Location: Kalberh�ni
(46.4610°N, 7.2453°E)
Time: 15:41:55
(UTC+00:00)

X-37B - Visible Passes

Search period start: 01 October 2022 00:00
Search period end: 11 October 2022 00:00
Orbit: 329 x 342 km, 45.0° (Epoch: 29 September)

Date Brightness Start Highest point End Pass type
(mag) Time Alt. Az. Time Alt. Az. Time Alt. Az.
01 Oct 1.6 03:30:26 38° ESE 03:30:26 38° ESE 03:32:25 10° E visible
02 Oct 0.5 03:50:05 60° S 03:50:05 60° S 03:52:49 10° ESE visible
03 Oct 0.9 04:09:46 37° SW 04:10:19 42° SSW 04:13:04 10° ESE visible
04 Oct 1.8 04:29:32 20° WSW 04:30:36 24° SSW 04:33:01 10° SSE visible
05 Oct 3.4 03:18:09 13° SE 03:18:09 13° SE 03:18:31 10° ESE visible
05 Oct 2.6 04:49:25 10° WSW 04:50:45 13° SSW 04:52:06 10° S visible
06 Oct 3.2 03:38:08 12° SSE 03:38:08 12° SSE 03:38:28 10° SSE visible
